This is the latest recevied weather packets stored in our database for station/object W5LND-10. If no packets are shown the sender has not sent any weather packets the latest 10 day(s).
| Time | Temp. | Humidity | Pressure | Rain* | Wind** | Luminosity | Snow |
|---|---|---|---|---|---|---|---|
| 1777909873 | 21.67° C | 55% | 1007.2 hPa | 0 mm | - | 380 W/m² | - |
| 1777909573 | 21.67° C | 56% | 1007.4 hPa | 0 mm | - | 346 W/m² | - |
| 1777909273 | 21.11° C | 57% | 1007.4 hPa | 0 mm | - | 411 W/m² | - |
| 1777908973 | 21.11° C | 57% | 1007.3 hPa | 0 mm | - | 399 W/m² | - |
| 1777908673 | 21.11° C | 57% | 1007.4 hPa | 0 mm | - | 462 W/m² | - |
| 1777908373 | 21.11° C | 57% | 1007.2 hPa | 0 mm | - | 492 W/m² | - |
| 1777908073 | 21.11° C | 57% | 1007.3 hPa | 0 mm | - | 334 W/m² | - |
| 1777907773 | 21.11° C | 58% | 1007.3 hPa | 0 mm | - | 255 W/m² | - |
| 1777907473 | 21.11° C | 58% | 1007.4 hPa | 0 mm | - | 287 W/m² | - |
| 1777907173 | 20.56° C | 58% | 1007.4 hPa | 0 mm | - | 299 W/m² | - |
| 1777906873 | 20.56° C | 57% | 1007.4 hPa | 0 mm | - | 297 W/m² | - |
| 1777906576 | 20.56° C | 57% | 1007.4 hPa | 0 mm | - | 323 W/m² | - |
| 1777906273 | 20.56° C | 58% | 1007.5 hPa | 0 mm | - | 828 W/m² | - |
| 1777905973 | 20° C | 59% | 1007.4 hPa | 0 mm | - | 747 W/m² | - |
| 1777905673 | 20° C | 60% | 1007.3 hPa | 0 mm | - | 656 W/m² | - |
| 1777905373 | 20° C | 61% | 1007.2 hPa | 0 mm | - | 615 W/m² | - |
| 1777905073 | 19.44° C | 62% | 1007 hPa | 0 mm | - | 589 W/m² | - |
| 1777904773 | 18.89° C | 62% | 1007 hPa | 0 mm | - | 492 W/m² | - |
| 1777904473 | 18.89° C | 62% | 1007.3 hPa | 0 mm | - | 468 W/m² | - |
| 1777904173 | 18.89° C | 62% | 1007.6 hPa | 0 mm | - | 401 W/m² | - |
| 1777903873 | 18.89° C | 63% | 1007.5 hPa | 0 mm | - | 446 W/m² | - |
| 1777903573 | 18.89° C | 63% | 1007.5 hPa | 0 mm | - | 341 W/m² | - |
| 1777903273 | 18.33° C | 63% | 1007.6 hPa | 0 mm | - | 441 W/m² | - |
| 1777902973 | 18.33° C | 64% | 1007.4 hPa | 0 mm | - | 466 W/m² | - |
| 1777902673 | 18.33° C | 64% | 1007.3 hPa | 0 mm | - | 473 W/m² | - |
* Rain latest hour (hover to see other rain measurements)
** Current wind speed in m/s (hover to see current wind gust speed)